Regional Weather Roundup
Issued by NWS

Home | Current Version | Previous Version | Graphics & Text | Print | Product List | Glossary On
Versions: 1 2 3 4 5 6 7 8 9 10 11 12 13 14 15 16 17 18 19 20 21 22 23 24 25 26 27 28 29 30 31 32 33 34 35 36 37 38 39 40 41 42 43 44 45 46 47 48 49 50
000
ASUS43 KTOP 290259
RWRKS

WEATHER ROUNDUP FOR KANSAS
NATIONAL WEATHER SERVICE GOODLAND KS
1000 PM CDT THU AUG 28 2014

NOTE:  "FAIR" INDICATES FEW OR NO CLOUDS BELOW 12,000 FEET WITH NO
SIGNIFICANT WEATHER AND/OR OBSTRUCTIONS TO VISIBILITY.

KSZ001>006-013>018-027>032-041>047-290400-
NORTHWEST KANSAS

CITY           SKY/WX    TMP DP  RH WIND       PRES   REMARKS
GOODLAND       MOCLDY    65  58  78 NW9       30.01S
HAYS           CLOUDY    73  63  68 SE7       29.88F
HILL CITY      CLOUDY    72  67  84 CALM      29.88S
RUSSELL        CLOUDY    70  66  87 SE7       29.88R
$$

KSZ061>065-074>080-084>089-290400-
SOUTHWEST KANSAS

CITY           SKY/WX    TMP DP  RH WIND       PRES   REMARKS
DODGE CITY     LGT RAIN  71  58  63 SW7       29.94R
ELKHART          N/A     72  51  47 NW6         N/A
GARDEN CITY    MOCLDY    69  58  67 N7        29.98R THUNDER
GREAT BEND     CLOUDY    72  66  83 SE7       29.89R
LIBERAL        PTCLDY    72  55  56 N5        29.98R
$$

KSZ066>073-081>083-090>101-290400-
SOUTHEAST KANSAS

CITY           SKY/WX    TMP DP  RH WIND       PRES   REMARKS
CHANUTE        CLEAR     79  60  52 S9        29.89R
COFFEYVILLE    CLEAR     80  62  54 SE9       29.88R
HUTCHINSON     CLOUDY    73  65  75 SW6G22    29.88R
NEWTON         CLOUDY    75  61  60 S18G24    29.92R
PARSONS        CLEAR     80  61  52 SE5       29.90R
WICHITA INTL   TSTM      70  64  81 S14       29.91R
WICHITA JABRA  CLOUDY    75  64  68 SW16      29.90R
WINFIELD       LGT RAIN  70  68  93 W16       29.95R
$$

KSZ007>012-019>026-033>040-048>060-102>105-290400-
NORTHEAST KANSAS

CITY           SKY/WX    TMP DP  RH WIND       PRES   REMARKS
CONCORDIA      CLOUDY    75  68  78 S12       29.85S
EMPORIA        CLOUDY    78  67  68 S5        29.88R
LAWRENCE       PTCLDY    80  68  66 SE6       29.87R
MANHATTAN      CLOUDY    73  70  90 CALM      29.86R
OLATHE IND     CLEAR     79  64  60 S7        29.88R
OLATHE EXE     CLEAR     77  65  66 S7        29.87R
SALINA         CLOUDY    77  65  66 S8        29.85R
TOPEKA BILLARD MOCLDY    85  64  49 S6        29.86R
TOPEKA FORBES  MOCLDY    82  63  52 S6        29.87R
$$


USA.gov is the U.S. government's official web portal to all federal, state and local government web resources and services.